Content
SEND FEEDBACK

Daily
Averages
Monthly
Summary
United States of America

CARLIN, NEVADA


Home > North America > United States > Nevada
Elevation: 5781 feet     Latitude: 40 39N     Longitude: 116 18W

WEATHER
 
SELECT A DAY
Number of Records: 252,694;   Date Range: 1/1/95 - 11/26/14
 
SHARE

PRINT THIS DATA

[ ← Previous Day ]
WEATHER ALMANAC - JANUARY 31, 2013
[ Next Day → ]
[ °C ]   °F
Weather ElementAverageHighLow
Temperature34.9 °F43 °F (12:56 pm)21 °F (11:56 pm)
Dewpoint29.1 °F34 °F (9:56 am)19 °F (11:56 pm)
Humidity80.3 %92 % (11:56 pm)60 % (3:56 pm)
Barometer30.35 in30.41 in (7:56 am)30.31 in (4:56 pm)
Wind Speed3.2 mph10.4 mph (1:56 am)
Weather ElementAverage
Visibility10 mi
Wind DirectionESE (120.7 °)

Weather ElementTotal
Precipitation---
Heating Degree Days33 (Base 65)
Averaged from 27 records on January 31, 2013
WEATHER CONDITIONS BREAKOUT
WIND DIRECTION BREAKOUT
WEATHER BY HOUR - JANUARY 31, 2013
[ °C ]   °F
Local TimeTemperatureDewpointHumidityBarometerVisibilityWind DirectionWind SpeedGust SpeedPrecipitationEventsConditions
12:56 AM34.0 °F30.9 °F89 %30.36 in10.0 miSSW (210°)6.9 mphMostly Cloudy
1:56 AM37.0 °F32.0 °F82 %30.36 in10.0 miSSW (200°)10.4 mphOvercast
2:28 AM35.6 °F30.2 °F81 %30.33 in10.0 miSW (220°)9.2 mphScattered Clouds
2:47 AM35.6 °F30.2 °F81 %30.33 in10.0 miSSW (210°)6.9 mphMostly Cloudy
2:54 AM35.6 °F30.2 °F81 %30.34 in10.0 miWSW (240°)6.9 mphMostly Cloudy
2:56 AM35.1 °F30.0 °F82 %30.37 in10.0 miWSW (240°)6.9 mphOvercast
3:56 AM34.0 °F30.0 °F85 %30.37 in10.0 miWSW (250°)3.5 mphOvercast
4:15 AM33.8 °F30.2 °F87 %30.34 in10.0 miCalmOvercast
4:56 AM35.1 °F30.9 °F85 %30.38 in10.0 miCalmOvercast
5:56 AM34.0 °F30.9 °F89 %30.38 in10.0 miCalmOvercast
6:54 AM35.6 °F30.2 °F81 %30.35 in10.0 miCalmOvercast
6:56 AM35.1 °F30.9 °F85 %30.39 in10.0 miCalmOvercast
7:56 AM35.1 °F32.0 °F89 %30.41 in10.0 miCalmOvercast
8:56 AM37.0 °F33.1 °F86 %30.41 in10.0 miCalmOvercast
9:56 AM41.0 °F34.0 °F76 %30.38 in10.0 miWest (260°)4.6 mphMostly Cloudy
10:56 AM41.0 °F32.0 °F70 %30.38 in10.0 miWSW (240°)5.8 mphPartly Cloudy
12:56 PM43.0 °F30.9 °F62 %30.34 in10.0 miWSW (250°)3.5 mphOvercast
1:56 PM42.1 °F30.9 °F65 %30.32 in10.0 miSW (230°)3.5 mphOvercast
2:56 PM41.0 °F30.9 °F67 %30.33 in10.0 miWest (280°)6.9 mphOvercast
3:56 PM42.1 °F28.9 °F60 %30.32 in10.0 miWest (270°)3.5 mphOvercast
4:56 PM39.9 °F28.0 °F63 %30.31 in10.0 miCalmClear
6:56 PM32.0 °F26.1 °F79 %30.33 in10.0 miEast (80°)4.6 mphClear
7:56 PM28.0 °F24.1 °F85 %30.34 in10.0 miCalmClear
8:56 PM27.0 °F24.1 °F89 %30.34 in10.0 miCalmClear
9:56 PM26.1 °F23.0 °F88 %30.33 in10.0 miEast (80°)4.6 mphClear
10:56 PM25.0 °F21.9 °F88 %30.33 in10.0 miCalmClear
11:56 PM21.0 °F19.0 °F92 %30.35 in10.0 miCalmClear
Hourly data recorded from KEKO, located miles away from Carlin, Nevada







STORIES FROM OUR PARTNERS